{"data":{"norad_id":65993,"intl_designator":"2025-230V","name":"SDA_1683","alt_names":[],"object_type":"PAYLOAD","status":"ACTIVE","operator":null,"country":"US","launch_date":"2025-10-15","launch_site_code":"AFWTR","launch_vehicle":null,"mission":null,"orbit_class":"UNKNOWN","rcs_meters":null,"size_class":null,"mass_kg":null,"dimensions":null,"purposes":[],"wikipedia_slug":null,"has_3d_model":false,"image_url":null,"decayed_at":null,"tle_current":{"epoch":"2026-05-24T22:33:13.616352Z","epoch_age_seconds":90368,"freshness":"FRESH","line1":"1 65993U 25230V   26144.93974093  .00000159  00000+0  14405-3 0  9996","line2":"2 65993  81.3021 233.7510 0001246 114.5009 245.6275 13.79141718 30560","mean_motion":13.79141718,"eccentricity":0.0001246,"inclination_deg":81.3021,"raan_deg":233.751,"arg_perigee_deg":114.5009,"mean_anomaly_deg":245.6275,"bstar":0.00014405,"rev_number":3056,"period_min":104.41276492515,"perigee_km":966.01732677002,"apogee_km":967.84771809501,"semimajor_km":7345.0695224325,"source":"CELESTRAK","updated_at":"2026-05-25T13:38:05.882150Z"}}}